,,Stat5,,Stat1,,Stat2,,Stat3,,Stat4,,Wind1,,Wind1,
time,status,PA1M_AVG,status,PR1M_SUM,status,RH1M_AVG,status,SR1M_AVG,status,TA1M_AVG,status,W1dAve1m,status,W1sAve1m,
2001-07-25, 00:00:00,VALID,917.159,VALID,0,VALID,98.5265,VALID,0,VALID,19.6235,VALID,32,VALID,0.132227,
2001-07-25, 00:01:00,VALID,917.161,VALID,0,VALID,98.5366,VALID,-0.0169808,VALID,19.6205,VALID,121,VALID,0.232227,
2001-07-25, 00:02:00,VALID,917.153,VALID,0,VALID,98.5354,VALID,0,VALID,19.6205,VALID,24,VALID,1.08193,
2001-07-25, 00:03:00,VALID,917.158,VALID,0,VALID,98.5583,VALID,-0.0339617,VALID,19.6304,VALID,255,VALID,0.0448191,
2001-07-25, 00:04:00,VALID,917.196,VALID,0,VALID,98.5214,VALID,-0.0169808,VALID,19.618,VALID,187,VALID,0.0755208,
2001-07-25, 00:05:00,VALID,917.186,VALID,0,VALID,98.4578,VALID,-0.0169808,VALID,19.6013,VALID,68,VALID,0.999219,
2001-07-25, 00:06:00,VALID,917.173,VALID,0,VALID,98.4578,VALID,-0.0509425,VALID,19.5785,VALID,47,VALID,0.890234,
2001-07-25, 00:07:00,VALID,917.154,VALID,0,VALID,98.4273,VALID,-0.0169808,VALID,19.5628,VALID,20,VALID,1.49609,
2001-07-25, 00:08:00,VALID,917.169,VALID,0,VALID,98.4985,VALID,-0.0169808,VALID,19.582,VALID,354,VALID,0.911395,
2001-07-25, 00:09:00,VALID,917.175,VALID,0,VALID,98.5137,VALID,0,VALID,19.5854,VALID,7,VALID,0.579127,
2001-07-25, 00:10:00,VALID,917.162,VALID,0,VALID,98.5239,VALID,0,VALID,19.5757,VALID,24,VALID,0.711993,
2001-07-25, 00:11:00,VALID,917.164,VALID,0,VALID,98.5443,VALID,-0.0339617,VALID,19.5688,VALID,31,VALID,0.53125,
2001-07-25, 00:12:00,VALID,917.156,VALID,0,VALID,98.571,VALID,0,VALID,19.5752,VALID,65,VALID,0.376689,
2001-07-25, 00:13:00,VALID,917.144,VALID,0,VALID,98.5583,VALID,0,VALID,19.5723,VALID,14,VALID,1.08272,
2001-07-25, 00:14:00,VALID,917.115,VALID,0,VALID,98.5722,VALID,0,VALID,19.5755,VALID,12,VALID,0.503811,
2001-07-25, 00:15:00,VALID,917.124,VALID,0,VALID,98.571,VALID,0,VALID,19.5591,VALID,13,VALID,0.477764,
2001-07-25, 00:16:00,VALID,917.125,VALID,0,VALID,98.5888,VALID,-0.0169808,VALID,19.5489,VALID,336,VALID,0.349159,
2001-07-25, 00:17:00,VALID,917.125,VALID,0,VALID,98.5315,VALID,0,VALID,19.5266,VALID,16,VALID,1.21875,
2001-07-25, 00:18:00,VALID,917.083,VALID,0,VALID,98.5532,VALID,0,VALID,19.5275,VALID,38,VALID,0.339384,
2001-07-25, 00:19:00,VALID,917.072,VALID,0,VALID,98.5977,VALID,0,VALID,19.5268,VALID,25,VALID,1.29709,
2001-07-25, 00:20:00,VALID,917.082,VALID,0,VALID,98.5824,VALID,0,VALID,19.5169,VALID,11,VALID,1.27628,
2001-07-25, 00:21:00,VALID,917.065,VALID,0,VALID,98.5646,VALID,0,VALID,19.5074,VALID,17,VALID,1.64654,
2001-07-25, 00:22:00,VALID,917.048,VALID,0,VALID,98.4934,VALID,0,VALID,19.4617,VALID,12,VALID,1.26907,
2001-07-25, 00:23:00,VALID,917.057,VALID,0,VALID,98.4959,VALID,-0.0169808,VALID,19.4562,VALID,23,VALID,1.56524,
2001-07-25, 00:24:00,VALID,917.03,VALID,0,VALID,98.5315,VALID,-0.0169808,VALID,19.4493,VALID,23,VALID,1.94572,
2001-07-25, 00:25:00,VALID,917.019,VALID,0,VALID,98.5214,VALID,-0.0169808,VALID,19.4398,VALID,17,VALID,1.97677,
2001-07-25, 00:26:00,VALID,917.019,VALID,0,VALID,98.4692,VALID,-0.0339617,VALID,19.4078,VALID,24,VALID,1.36406,
2001-07-25, 00:27:00,VALID,917.021,VALID,0,VALID,98.4286,VALID,0.0169808,VALID,19.375,VALID,15,VALID,1.54054,
2001-07-25, 00:28:00,VALID,917.013,VALID,0,VALID,98.4464,VALID,-0.0339617,VALID,19.3621,VALID,17,VALID,1.28148,
2001-07-25, 00:29:00,VALID,917.025,VALID,0,VALID,98.4603,VALID,-0.0849042,VALID,19.3626,VALID,13,VALID,1.75486,
2001-07-25, 00:30:00,VALID,917.021,VALID,0,VALID,98.3408,VALID,-0.0339617,VALID,19.3178,VALID,338,VALID,1.5498,
2001-07-25, 00:31:00,VALID,917.039,VALID,0,VALID,98.309,VALID,-0.0339617,VALID,19.3012,VALID,16,VALID,1.02424,
2001-07-25, 00:32:00,VALID,917.042,VALID,0,VALID,98.3167,VALID,-0.0169808,VALID,19.2975,VALID,5,VALID,0.968527,
2001-07-25, 00:33:00,VALID,917.023,VALID,0,VALID,98.2836,VALID,-0.0169808,VALID,19.298,VALID,3,VALID,0.794341,
2001-07-25, 00:34:00,VALID,917.011,VALID,0,VALID,98.3217,VALID,0,VALID,19.3014,VALID,29,VALID,0.319393,
2001-07-25, 00:35:00,VALID,917.011,VALID,0,VALID,98.3726,VALID,0,VALID,19.3104,VALID,22,VALID,0.630701,
2001-07-25, 00:36:00,VALID,917.01,VALID,0,VALID,98.3281,VALID,0,VALID,19.2915,VALID,327,VALID,1.044,
2001-07-25, 00:37:00,VALID,917.008,VALID,0,VALID,98.2454,VALID,0,VALID,19.2885,VALID,12,VALID,1.40399,
2001-07-25, 00:38:00,VALID,917.004,VALID,0,VALID,98.2861,VALID,-0.0169808,VALID,19.2918,VALID,24,VALID,0.808036,
2001-07-25, 00:39:00,VALID,917.005,VALID,0,VALID,98.295,VALID,0,VALID,19.2878,VALID,358,VALID,0.654139,
2001-07-25, 00:40:00,VALID,917.017,VALID,0,VALID,98.3052,VALID,-0.0169808,VALID,19.2813,VALID,343,VALID,0.152344,
2001-07-25, 00:41:00,VALID,917.001,VALID,0,VALID,98.2467,VALID,-0.0169808,VALID,19.2754,VALID,312,VALID,1.0796,
2001-07-25, 00:42:00,VALID,916.99,VALID,0,VALID,98.2683,VALID,0,VALID,19.2652,VALID,26,VALID,1.06104,
2001-07-25, 00:43:00,VALID,916.996,VALID,0,VALID,98.3294,VALID,0,VALID,19.2684,VALID,12,VALID,1.02845,
2001-07-25, 00:44:00,VALID,916.999,VALID,0,VALID,98.3675,VALID,0.0169808,VALID,19.2913,VALID,241,VALID,0.139732,
2001-07-25, 00:45:00,VALID,916.988,VALID,0,VALID,98.3739,VALID,0,VALID,19.2846,VALID,48,VALID,0.247889,
2001-07-25, 00:46:00,VALID,916.979,VALID,0,VALID,98.384,VALID,0,VALID,19.2816,VALID,174,VALID,0.668658,
2001-07-25, 00:47:00,VALID,916.972,VALID,0,VALID,98.3014,VALID,0.0169808,VALID,19.2784,VALID,89,VALID,0.223818,
2001-07-25, 00:48:00,VALID,916.952,VALID,0,VALID,98.3383,VALID,0,VALID,19.2627,VALID,117,VALID,0.362459,
2001-07-25, 00:49:00,VALID,916.905,VALID,0,VALID,98.4018,VALID,0,VALID,19.2525,VALID,9,VALID,0.604646,
2001-07-25, 00:50:00,VALID,916.932,VALID,0,VALID,98.4273,VALID,0,VALID,19.2624,VALID,293,VALID,0.915179,
2001-07-25, 00:51:00,VALID,916.902,VALID,0,VALID,98.4514,VALID,-0.0169808,VALID,19.2786,VALID,34,VALID,1.13894,
2001-07-25, 00:52:00,VALID,916.899,VALID,0,VALID,98.4921,VALID,0,VALID,19.2915,VALID,296,VALID,1.04366,
2001-07-25, 00:53:00,VALID,916.906,VALID,0,VALID,98.3739,VALID,0.0169808,VALID,19.2724,VALID,253,VALID,0.982475,
2001-07-25, 00:54:00,VALID,916.898,VALID,0,VALID,98.3612,VALID,0,VALID,19.2659,VALID,44,VALID,0.536133,
2001-07-25, 00:55:00,VALID,916.891,VALID,0,VALID,98.3599,VALID,0.0169808,VALID,19.2691,VALID,348,VALID,1.40024,
2001-07-25, 00:56:00,VALID,916.893,VALID,0,VALID,98.3128,VALID,-0.0169808,VALID,19.2495,VALID,304,VALID,1.04844,
2001-07-25, 00:57:00,VALID,916.898,VALID,0,VALID,98.3001,VALID,0,VALID,19.2495,VALID,306,VALID,0.600718,
2001-07-25, 00:58:00,VALID,916.892,VALID,0,VALID,98.4108,VALID,0.0169808,VALID,19.2821,VALID,307,VALID,0.574219,
2001-07-25, 00:59:00,VALID,916.879,VALID,0,VALID,98.4222,VALID,-0.0339617,VALID,19.298,VALID,318,VALID,0.841639,
2001-07-25, 01:00:00,VALID,916.87,VALID,0,VALID,98.4031,VALID,0,VALID,19.2982,VALID,15,VALID,0.150082,
2001-07-25, 01:01:00,VALID,916.86,VALID,0,VALID,98.3726,VALID,0,VALID,19.3012,VALID,300,VALID,0.512952,
2001-07-25, 01:02:00,VALID,916.829,VALID,0,VALID,98.309,VALID,-0.0169808,VALID,19.288,VALID,334,VALID,0.93125,
2001-07-25, 01:03:00,VALID,916.808,VALID,0,VALID,98.3662,VALID,0,VALID,19.3014,VALID,30,VALID,0.727829,
2001-07-25, 01:04:00,VALID,916.818,VALID,0,VALID,98.3484,VALID,0,VALID,19.3049,VALID,44,VALID,1.11994,
2001-07-25, 01:05:00,VALID,916.767,VALID,0,VALID,98.2798,VALID,0,VALID,19.262,VALID,306,VALID,0.381334,
2001-07-25, 01:06:00,VALID,916.773,VALID,0,VALID,98.2734,VALID,0,VALID,19.2592,VALID,204,VALID,0.500244,
2001-07-25, 01:07:00,VALID,916.754,VALID,0,VALID,98.2454,VALID,0,VALID,19.2369,VALID,152,VALID,0.301282,
2001-07-25, 01:08:00,VALID,916.74,VALID,0,VALID,98.2493,VALID,-0.0169808,VALID,19.2209,VALID,62,VALID,0.153571,
2001-07-25, 01:09:00,VALID,916.727,VALID,0,VALID,98.323,VALID,0,VALID,19.2142,VALID,85,VALID,0.197424,
2001-07-25, 01:10:00,VALID,916.7,VALID,0,VALID,98.4133,VALID,0,VALID,19.2299,VALID,348,VALID,0.0868566,
2001-07-25, 01:11:00,VALID,916.697,VALID,0,VALID,98.4629,VALID,0,VALID,19.2431,VALID,325,VALID,0,
2001-07-25, 01:12:00,VALID,916.683,VALID,0,VALID,98.4146,VALID,-0.0509425,VALID,19.2272,VALID,61,VALID,0,
2001-07-25, 01:13:00,VALID,916.667,VALID,0,VALID,98.4222,VALID,0,VALID,19.2075,VALID,14,VALID,0.0261102,
2001-07-25, 01:14:00,VALID,916.673,VALID,0,VALID,98.5048,VALID,-0.0169808,VALID,19.2269,VALID,24,VALID,0.360491,
2001-07-25, 01:15:00,VALID,916.693,VALID,0,VALID,98.5761,VALID,-0.0169808,VALID,19.2436,VALID,22,VALID,0.223395,
2001-07-25, 01:16:00,VALID,916.64,VALID,0,VALID,98.5748,VALID,0.0169808,VALID,19.2431,VALID,143,VALID,0.00827206,
2001-07-25, 01:17:00,VALID,916.653,VALID,0,VALID,98.4654,VALID,0.0169808,VALID,19.1912,VALID,286,VALID,0.393581,
2001-07-25, 01:18:00,VALID,916.631,VALID,0,VALID,98.4731,VALID,-0.0169808,VALID,19.1723,VALID,106,VALID,0.34082,
2001-07-25, 01:19:00,VALID,916.619,VALID,0,VALID,98.5519,VALID,0,VALID,19.1886,VALID,14,VALID,1.54647,
2001-07-25, 01:20:00,VALID,916.637,VALID,0,VALID,98.6053,VALID,0,VALID,19.1882,VALID,345,VALID,0.882589,
2001-07-25, 01:21:00,VALID,916.63,VALID,0,VALID,98.6078,VALID,-0.0169808,VALID,19.1782,VALID,62,VALID,1.197,
2001-07-25, 01:22:00,VALID,916.574,VALID,0,VALID,98.6549,VALID,0,VALID,19.1914,VALID,15,VALID,0.798024,
2001-07-25, 01:23:00,VALID,916.598,VALID,0,VALID,98.6791,VALID,0,VALID,19.1949,VALID,334,VALID,1.16554,
2001-07-25, 01:24:00,VALID,916.57,VALID,0,VALID,98.6409,VALID,0,VALID,19.1787,VALID,260,VALID,1.33059,
2001-07-25, 01:25:00,VALID,916.549,VALID,0,VALID,98.6371,VALID,0,VALID,19.1561,VALID,28,VALID,1.27467,
2001-07-25, 01:26:00,VALID,916.53,VALID,0,VALID,98.6956,VALID,0.0169808,VALID,19.1529,VALID,12,VALID,1.54174,
2001-07-25, 01:27:00,VALID,916.506,VALID,0,VALID,98.721,VALID,0.0339617,VALID,19.1464,VALID,23,VALID,1.80891,
2001-07-25, 01:28:00,VALID,916.487,VALID,0,VALID,98.749,VALID,0,VALID,19.1497,VALID,333,VALID,1.10524,
2001-07-25, 01:29:00,VALID,916.46,VALID,0,VALID,98.7693,VALID,0,VALID,19.143,VALID,343,VALID,1.75633,
2001-07-25, 01:30:00,VALID,916.461,VALID,0,VALID,98.6994,VALID,0,VALID,19.0878,VALID,269,VALID,1.48657,
2001-07-25, 01:31:00,VALID,916.424,VALID,0,VALID,98.7388,VALID,0,VALID,19.0846,VALID,29,VALID,1.98237,
2001-07-25, 01:32:00,VALID,916.427,VALID,0,VALID,98.81,VALID,0,VALID,19.1174,VALID,17,VALID,1.43281,
2001-07-25, 01:33:00,VALID,916.416,VALID,0,VALID,98.8024,VALID,0.0169808,VALID,19.1171,VALID,242,VALID,0.519637,
2001-07-25, 01:34:00,VALID,916.441,VALID,0,VALID,98.7795,VALID,0,VALID,19.1107,VALID,279,VALID,0.404642,
2001-07-25, 01:35:00,VALID,916.425,VALID,0,VALID,98.7897,VALID,0,VALID,19.1111,VALID,46,VALID,0.491765,
2001-07-25, 01:36:00,VALID,916.413,VALID,0,VALID,98.8177,VALID,0,VALID,19.1139,VALID,22,VALID,1.6509,
2001-07-25, 01:37:00,VALID,916.405,VALID,0,VALID,98.8227,VALID,0,VALID,19.1077,VALID,23,VALID,1.83121,
2001-07-25, 01:38:00,VALID,916.411,VALID,0,VALID,98.8444,VALID,0,VALID,19.1141,VALID,18,VALID,1.87076,
2001-07-25, 01:39:00,VALID,916.422,VALID,0,VALID,98.8673,VALID,0,VALID,19.127,VALID,24,VALID,1.44637,
2001-07-25, 01:40:00,VALID,916.454,VALID,0,VALID,98.8698,VALID,0,VALID,19.1238,VALID,38,VALID,1.22266,
2001-07-25, 01:41:00,VALID,916.464,VALID,0,VALID,98.8622,VALID,0.0169808,VALID,19.1206,VALID,55,VALID,0.802365,
2001-07-25, 01:42:00,VALID,916.445,VALID,0,VALID,98.9003,VALID,0,VALID,19.1171,VALID,12,VALID,1.49365,
2001-07-25, 01:43:00,VALID,916.467,VALID,0,VALID,98.8965,VALID,0,VALID,19.1174,VALID,342,VALID,0.411859,
2001-07-25, 01:44:00,VALID,916.479,VALID,0,VALID,98.8978,VALID,0,VALID,19.1044,VALID,309,VALID,0.641295,
2001-07-25, 01:45:00,VALID,916.473,VALID,0,VALID,98.8774,VALID,-0.0169808,VALID,19.0791,VALID,273,VALID,0.0240709,
2001-07-25, 01:46:00,VALID,916.491,VALID,0,VALID,98.8762,VALID,0,VALID,19.0622,VALID,142,VALID,0.399357,
2001-07-25, 01:47:00,VALID,916.464,VALID,0,VALID,98.8965,VALID,0,VALID,19.0721,VALID,27,VALID,1.29139,
2001-07-25, 01:48:00,VALID,916.435,VALID,0,VALID,98.9194,VALID,0,VALID,19.0754,VALID,318,VALID,0.777138,
2001-07-25, 01:49:00,VALID,916.446,VALID,0,VALID,98.9143,VALID,0,VALID,19.053,VALID,150,VALID,0.218099,
2001-07-25, 01:50:00,VALID,916.444,VALID,0,VALID,98.9194,VALID,-0.0169808,VALID,19.0495,VALID,204,VALID,0.0654018,
2001-07-25, 01:51:00,VALID,916.468,VALID,0,VALID,98.9143,VALID,0,VALID,19.0495,VALID,304,VALID,0.268159,
2001-07-25, 01:52:00,VALID,916.449,VALID,0,VALID,98.9385,VALID,0,VALID,19.0465,VALID,22,VALID,1.22243,
2001-07-25, 01:53:00,VALID,916.508,VALID,0,VALID,98.9436,VALID,-0.0169808,VALID,19.0431,VALID,20,VALID,1.50549,
2001-07-25, 01:54:00,VALID,916.523,VALID,0,VALID,98.9626,VALID,0,VALID,19.0436,VALID,30,VALID,0.713135,
2001-07-25, 01:55:00,VALID,916.536,VALID,0,VALID,98.9639,VALID,-0.0169808,VALID,19.0267,VALID,266,VALID,0.111378,
2001-07-25, 01:56:00,VALID,916.534,VALID,0,VALID,98.955,VALID,0,VALID,19.0145,VALID,19,VALID,0.508929,
2001-07-25, 01:57:00,VALID,916.529,VALID,0,VALID,98.969,VALID,-0.0339617,VALID,19.0075,VALID,20,VALID,1.00169,
2001-07-25, 01:58:00,VALID,916.534,VALID,0,VALID,98.9652,VALID,-0.0169808,VALID,19.0048,VALID,35,VALID,1.30928,
2001-07-25, 01:59:00,VALID,916.514,VALID,0,VALID,98.9944,VALID,-0.0339617,VALID,19.0145,VALID,23,VALID,1.44848,
2001-07-25, 02:00:00,VALID,916.508,VALID,0,VALID,99.0059,VALID,-0.0169808,VALID,19.0276,VALID,340,VALID,0.97574,
2001-07-25, 02:01:00,VALID,916.491,VALID,0,VALID,98.9664,VALID,0,VALID,18.9951,VALID,186,VALID,0.968956,
2001-07-25, 02:02:00,VALID,916.481,VALID,0,VALID,98.8787,VALID,0,VALID,18.9275,VALID,255,VALID,0.959821,
2001-07-25, 02:03:00,VALID,916.443,VALID,0,VALID,98.8418,VALID,0.0169808,VALID,18.8629,VALID,336,VALID,1.54286,
2001-07-25, 02:04:00,VALID,916.448,VALID,0,VALID,98.9054,VALID,-0.0169808,VALID,18.8689,VALID,29,VALID,1.57514,
2001-07-25, 02:05:00,VALID,916.415,VALID,0,VALID,98.9359,VALID,0,VALID,18.8982,VALID,348,VALID,0.668074,
2001-07-25, 02:06:00,VALID,916.409,VALID,0,VALID,98.9321,VALID,-0.0169808,VALID,18.8918,VALID,144,VALID,0.574951,
2001-07-25, 02:07:00,VALID,916.379,VALID,0,VALID,98.9334,VALID,-0.0339617,VALID,18.8982,VALID,17,VALID,1.82833,
2001-07-25, 02:08:00,VALID,916.372,VALID,0,VALID,98.9436,VALID,0,VALID,18.8913,VALID,353,VALID,1.04353,
2001-07-25, 02:09:00,VALID,916.367,VALID,0,VALID,98.9181,VALID,0,VALID,18.8818,VALID,11,VALID,1.33953,
2001-07-25, 02:10:00,VALID,916.365,VALID,0,VALID,98.8164,VALID,0,VALID,18.8011,VALID,346,VALID,1.59903,
2001-07-25, 02:11:00,VALID,916.334,VALID,0,VALID,98.8304,VALID,0,VALID,18.7976,VALID,200,VALID,0.687922,
2001-07-25, 02:12:00,VALID,916.349,VALID,0,VALID,98.8139,VALID,-0.0339617,VALID,18.7944,VALID,202,VALID,0.25884,
2001-07-25, 02:13:00,VALID,916.31,VALID,0,VALID,98.8139,VALID,-0.0169808,VALID,18.7951,VALID,189,VALID,0.277138,
2001-07-25, 02:14:00,VALID,916.304,VALID,0,VALID,98.8444,VALID,-0.0169808,VALID,18.8046,VALID,33,VALID,0.441741,
2001-07-25, 02:15:00,VALID,916.305,VALID,0,VALID,98.8177,VALID,0,VALID,18.8046,VALID,74,VALID,0.368877,
2001-07-25, 02:16:00,VALID,916.275,VALID,0,VALID,98.8088,VALID,-0.0169808,VALID,18.7884,VALID,38,VALID,0.560662,
2001-07-25, 02:17:00,VALID,916.283,VALID,0,VALID,98.796,VALID,0,VALID,18.7787,VALID,250,VALID,0.716216,
2001-07-25, 02:18:00,VALID,916.245,VALID,0,VALID,98.7922,VALID,0,VALID,18.7887,VALID,9,VALID,1.16602,
2001-07-25, 02:19:00,VALID,916.253,VALID,0,VALID,98.7681,VALID,-0.0169808,VALID,18.7854,VALID,303,VALID,0.408053,
2001-07-25, 02:20:00,VALID,916.228,VALID,0,VALID,98.7388,VALID,0,VALID,18.7822,VALID,289,VALID,0.837054,
2001-07-25, 02:21:00,VALID,916.224,VALID,0,VALID,98.7439,VALID,-0.0509425,VALID,18.7688,VALID,7,VALID,1.72466,
2001-07-25, 02:22:00,VALID,916.221,VALID,0,VALID,98.7045,VALID,-0.0169808,VALID,18.769,VALID,346,VALID,1.08709,
2001-07-25, 02:23:00,VALID,916.231,VALID,0,VALID,98.6727,VALID,-0.0169808,VALID,18.7559,VALID,78,VALID,1.02956,
2001-07-25, 02:24:00,VALID,916.215,VALID,0,VALID,98.6155,VALID,0,VALID,18.7402,VALID,322,VALID,1.42167,
2001-07-25, 02:25:00,VALID,916.234,VALID,0,VALID,98.5977,VALID,-0.0169808,VALID,18.7303,VALID,351,VALID,0.91838,
2001-07-25, 02:26:00,VALID,916.225,VALID,0,VALID,98.5265,VALID,-0.0169808,VALID,18.7372,VALID,238,VALID,0.846875,
2001-07-25, 02:27:00,VALID,916.188,VALID,0,VALID,98.4692,VALID,-0.0169808,VALID,18.7206,VALID,26,VALID,2.52745,
2001-07-25, 02:28:01,VALID,916.167,VALID,0,VALID,98.4654,VALID,-0.0679233,VALID,18.7312,VALID,5,VALID,1.33226,
2001-07-25, 02:29:00,VALID,916.198,VALID,0,VALID,98.3904,VALID,-0.101885,VALID,18.725,VALID,211,VALID,0.884713,
2001-07-25, 02:30:00,VALID,916.223,VALID,0,VALID,98.248,VALID,-0.118866,VALID,18.7123,VALID,272,VALID,1.64722,
2001-07-25, 02:31:00,VALID,916.219,VALID,0,VALID,98.2353,VALID,-0.101885,VALID,18.7059,VALID,353,VALID,0.702524,
2001-07-25, 02:32:00,VALID,916.237,VALID,0,VALID,98.1246,VALID,-0.101885,VALID,18.6994,VALID,321,VALID,0.859598,
2001-07-25, 02:33:00,VALID,916.257,VALID,0,VALID,98.159,VALID,-0.101885,VALID,18.7026,VALID,24,VALID,1.61191,
2001-07-25, 02:34:00,VALID,916.278,VALID,0,VALID,98.2531,VALID,-0.0849042,VALID,18.7248,VALID,27,VALID,1.85202,
2001-07-25, 02:35:00,VALID,916.27,VALID,0,VALID,98.3268,VALID,0.0169808,VALID,18.7501,VALID,25,VALID,1.93349,
2001-07-25, 02:36:00,VALID,916.264,VALID,0,VALID,98.2772,VALID,0,VALID,18.7271,VALID,335,VALID,1.01912,
2001-07-25, 02:37:00,VALID,916.298,VALID,0,VALID,98.131,VALID,0.0339617,VALID,18.7008,VALID,9,VALID,1.20703,
2001-07-25, 02:38:00,VALID,916.317,VALID,0,VALID,98.192,VALID,0,VALID,18.7238,VALID,32,VALID,1.39375,
2001-07-25, 02:39:00,VALID,916.297,VALID,0,VALID,98.1793,VALID,0,VALID,18.707,VALID,26,VALID,0.557221,
2001-07-25, 02:40:01,VALID,916.305,VALID,0,VALID,98.2111,VALID,-0.0169808,VALID,18.7238,VALID,337,VALID,0.491728,
2001-07-25, 02:41:00,VALID,916.322,VALID,0,VALID,98.2467,VALID,0.0169808,VALID,18.7241,VALID,46,VALID,0.631546,
2001-07-25, 02:42:00,VALID,916.339,VALID,0,VALID,98.2378,VALID,0,VALID,18.7236,VALID,143,VALID,0.208496,
2001-07-25, 02:43:00,VALID,916.343,VALID,0,VALID,98.1755,VALID,0,VALID,18.7174,VALID,88,VALID,0.313301,
2001-07-25, 02:44:00,VALID,916.338,VALID,0,VALID,98.1908,VALID,0,VALID,18.7114,VALID,327,VALID,0.435045,
2001-07-25, 02:45:00,VALID,916.341,VALID,0,VALID,98.117,VALID,0,VALID,18.6849,VALID,85,VALID,0.839316,
2001-07-25, 02:46:00,VALID,916.326,VALID,0,VALID,98.1463,VALID,0,VALID,18.6853,VALID,71,VALID,0.796875,
2001-07-25, 02:47:00,VALID,916.301,VALID,0,VALID,98.2556,VALID,0,VALID,18.7082,VALID,25,VALID,1.24916,
2001-07-25, 02:48:00,VALID,916.286,VALID,0,VALID,98.2976,VALID,-0.0169808,VALID,18.7109,VALID,88,VALID,0.468956,
2001-07-25, 02:49:00,VALID,916.3,VALID,0,VALID,98.309,VALID,0,VALID,18.6945,VALID,215,VALID,0.394326,
2001-07-25, 02:50:00,VALID,916.287,VALID,0,VALID,98.2849,VALID,0,VALID,18.7042,VALID,331,VALID,1.40179,
2001-07-25, 02:51:00,VALID,916.263,VALID,0,VALID,98.379,VALID,0.0169808,VALID,18.7308,VALID,23,VALID,1.63302,
2001-07-25, 02:52:01,VALID,916.29,VALID,0,VALID,98.2823,VALID,0,VALID,18.6948,VALID,335,VALID,1.12339,
2001-07-25, 02:53:00,VALID,916.305,VALID,0,VALID,98.3103,VALID,0,VALID,18.6814,VALID,147,VALID,0,
2001-07-25, 02:54:00,VALID,916.329,VALID,0,VALID,98.3001,VALID,0.0169808,VALID,18.6851,VALID,67,VALID,0,
2001-07-25, 02:55:00,VALID,916.336,VALID,0,VALID,98.2404,VALID,0,VALID,18.6789,VALID,48,VALID,0.410857,
2001-07-25, 02:56:00,VALID,916.322,VALID,0,VALID,98.2938,VALID,0,VALID,18.6782,VALID,53,VALID,0.610268,
2001-07-25, 02:57:00,VALID,916.337,VALID,0,VALID,98.3281,VALID,0.0169808,VALID,18.6849,VALID,342,VALID,0.425042,
2001-07-25, 02:58:00,VALID,916.331,VALID,0,VALID,98.3573,VALID,0,VALID,18.7077,VALID,311,VALID,0.171645,
2001-07-25, 02:59:00,VALID,916.328,VALID,0,VALID,98.3701,VALID,0,VALID,18.7142,VALID,9,VALID,0.499789,
2001-07-25, 03:00:00,VALID,916.336,VALID,0,VALID,98.398,VALID,0,VALID,18.7174,VALID,22,VALID,0.774671,
2001-07-25, 03:01:00,VALID,916.35,VALID,0,VALID,98.3929,VALID,0,VALID,18.7271,VALID,54,VALID,0.313734,
2001-07-25, 03:02:00,VALID,916.323,VALID,0,VALID,98.3205,VALID,-0.0169808,VALID,18.7208,VALID,345,VALID,1.10915,
2001-07-25, 03:03:00,VALID,916.333,VALID,0,VALID,98.3434,VALID,-0.0169808,VALID,18.7171,VALID,63,VALID,0.45038,
2001-07-25, 03:04:01,VALID,916.345,VALID,0,VALID,98.2912,VALID,-0.0169808,VALID,18.7243,VALID,66,VALID,0.758042,
2001-07-25, 03:05:00,VALID,916.355,VALID,0,VALID,98.3294,VALID,0,VALID,18.7183,VALID,49,VALID,1.20608,
2001-07-25, 03:06:01,VALID,916.35,VALID,0,VALID,98.4413,VALID,0,VALID,18.7405,VALID,289,VALID,0.821533,
2001-07-25, 03:07:00,VALID,916.368,VALID,0,VALID,98.44,VALID,0,VALID,18.7603,VALID,192,VALID,0.658854,
2001-07-25, 03:08:00,VALID,916.378,VALID,0,VALID,98.4349,VALID,0,VALID,18.7405,VALID,97,VALID,1.19509,
2001-07-25, 03:09:00,VALID,916.346,VALID,0,VALID,98.515,VALID,0,VALID,18.7598,VALID,271,VALID,0.68011,
2001-07-25, 03:10:00,VALID,916.397,VALID,0,VALID,98.4909,VALID,0.0169808,VALID,18.74,VALID,197,VALID,0.72932,
2001-07-25, 03:11:00,VALID,916.411,VALID,0,VALID,98.5773,VALID,0.0169808,VALID,18.7524,VALID,350,VALID,0.919341,
2001-07-25, 03:12:00,VALID,916.426,VALID,0,VALID,98.5824,VALID,0,VALID,18.7591,VALID,140,VALID,0.631579,
2001-07-25, 03:13:00,VALID,916.442,VALID,0,VALID,98.604,VALID,0,VALID,18.7529,VALID,201,VALID,0.654605,
2001-07-25, 03:14:00,VALID,916.436,VALID,0.2,VALID,98.6307,VALID,0,VALID,18.7462,VALID,77,VALID,0.330357,
2001-07-25, 03:15:00,VALID,916.466,VALID,0,VALID,98.6485,VALID,0,VALID,18.7594,VALID,140,VALID,0.703336,
2001-07-25, 03:16:01,VALID,916.457,VALID,0,VALID,98.6727,VALID,0.0169808,VALID,18.7624,VALID,26,VALID,0.802619,
2001-07-25, 03:17:00,VALID,916.443,VALID,0,VALID,98.6689,VALID,0,VALID,18.7596,VALID,145,VALID,0.997889,
2001-07-25, 03:18:00,VALID,916.473,VALID,0,VALID,98.6752,VALID,0,VALID,18.7365,VALID,112,VALID,0.918457,
2001-07-25, 03:19:00,VALID,916.491,VALID,0,VALID,98.7185,VALID,0,VALID,18.7301,VALID,353,VALID,0.977364,
2001-07-25, 03:20:00,VALID,916.486,VALID,0.2,VALID,98.7375,VALID,0.0169808,VALID,18.7273,VALID,33,VALID,1.23527,
2001-07-25, 03:21:00,VALID,916.497,VALID,0,VALID,98.7643,VALID,0,VALID,18.7333,VALID,2,VALID,1.08235,
2001-07-25, 03:22:00,VALID,916.532,VALID,0,VALID,98.7579,VALID,-0.0169808,VALID,18.7245,VALID,130,VALID,0.774127,
2001-07-25, 03:23:00,VALID,916.51,VALID,0,VALID,98.7528,VALID,0,VALID,18.6978,VALID,69,VALID,1.2973,
2001-07-25, 03:24:00,VALID,916.525,VALID,0,VALID,98.7604,VALID,0,VALID,18.6851,VALID,93,VALID,1.02159,
2001-07-25, 03:25:00,VALID,916.556,VALID,0,VALID,98.7325,VALID,0,VALID,18.6401,VALID,307,VALID,1.7574,
2001-07-25, 03:26:00,VALID,916.529,VALID,0,VALID,98.7846,VALID,-0.0169808,VALID,18.6205,VALID,94,VALID,1.42478,
2001-07-25, 03:27:00,VALID,916.572,VALID,0.2,VALID,98.6689,VALID,0,VALID,18.5788,VALID,198,VALID,1.31229,
2001-07-25, 03:28:01,VALID,916.535,VALID,0,VALID,98.6015,VALID,0.0169808,VALID,18.5008,VALID,87,VALID,1.21301,
2001-07-25, 03:29:00,VALID,916.537,VALID,0,VALID,98.646,VALID,0,VALID,18.4846,VALID,234,VALID,1.02724,
2001-07-25, 03:30:00,VALID,916.561,VALID,0,VALID,98.7147,VALID,0,VALID,18.4817,VALID,200,VALID,0.795166,
2001-07-25, 03:31:00,VALID,916.54,VALID,0,VALID,98.7465,VALID,0,VALID,18.475,VALID,344,VALID,1.39323,
2001-07-25, 03:32:00,VALID,916.524,VALID,0.2,VALID,98.693,VALID,0,VALID,18.4494,VALID,318,VALID,1.85469,
2001-07-25, 03:33:00,VALID,916.492,VALID,0,VALID,98.7172,VALID,0,VALID,18.4238,VALID,23,VALID,1.13661,
2001-07-25, 03:34:00,VALID,916.519,VALID,0,VALID,98.6956,VALID,0.0169808,VALID,18.3947,VALID,194,VALID,1.33663,
2001-07-25, 03:35:00,VALID,916.497,VALID,0,VALID,98.6765,VALID,0,VALID,18.3654,VALID,30,VALID,1.50866,
2001-07-25, 03:36:00,VALID,916.5,VALID,0,VALID,98.749,VALID,0,VALID,18.3456,VALID,25,VALID,1.43154,
2001-07-25, 03:37:00,VALID,916.514,VALID,0,VALID,98.8215,VALID,0,VALID,18.3656,VALID,15,VALID,1.82669,
2001-07-25, 03:38:00,VALID,916.516,VALID,0.2,VALID,98.8685,VALID,0,VALID,18.3822,VALID,341,VALID,1.31138,
2001-07-25, 03:39:00,VALID,916.501,VALID,0,VALID,98.8584,VALID,0,VALID,18.3594,VALID,206,VALID,0.874578,